FW2847 Weather Reports


Display with metric or nautical units.
time (UTC)temp
F
wind
direction
speed
MPH
gust
MPH
rain 1hr
in
rain 24hr
in
rain mn
in
humidity
%
barometer
mb
20260504204723 67 84 2.0 6.0 0.00 0.00 0.00 31 1020.6
20260504204222 66 137 2.0 6.0 0.00 0.00 0.00 32 1020.6
20260504203722 66 229 3.0 9.0 0.00 0.00 0.00 33 1020.6
20260504203222 65 89 2.0 9.0 0.00 0.00 0.00 33 1020.6
20260504202723 65 108 1.0 7.0 0.00 0.00 0.00 35 1020.6
20260504202222 64 281 1.0 7.0 0.00 0.00 0.00 35 1020.6
20260504201722 64 116 2.0 7.0 0.00 0.00 0.00 35 1020.6
20260504201219 65 103 1.0 6.0 0.00 0.00 0.00 35 1020.6
20260504200719 64 106 1.0 5.0 0.00 0.00 0.00 38 1020.6
20260504200221 62 242 1.0 6.0 0.00 0.00 0.00 39 1020.6
20260504195721 62 259 1.0 6.0 0.00 0.00 0.00 41 1020.6
20260504195219 62 96 1.0 6.0 0.00 0.00 0.00 39 1020.6
20260504194721 61 191 1.0 6.0 0.00 0.00 0.00 40 1020.6
20260504194220 61 238 2.0 6.0 0.00 0.00 0.00 40 1020.6
20260504193721 61 110 3.0 11.0 0.00 0.00 0.00 39 1020.6
20260504193220 62 110 4.0 12.0 0.00 0.00 0.00 37 1020.6
20260504192719 63 268 3.0 12.0 0.00 0.00 0.00 36 1020.6
20260504192219 65 78 3.0 9.0 0.00 0.00 0.00 32 1020.6
20260504191950 67 83 2.0 6.0 0.00 0.00 0.00 27 1020.6
20260504191220 68 95 2.0 7.0 0.00 0.00 0.00 25 1020.6
20260504190721 67 280 4.0 13.0 0.00 0.00 0.00 26 1020.6
20260504190448 67 312 6.0 13.0 0.00 0.00 0.00 25 1020.6
20260504185719 68 301 7.0 16.0 0.00 0.00 0.00 25 1020.6
20260504185219 69 282 6.0 16.0 0.00 0.00 0.00 24 1020.6
20260504184718 69 297 7.0 13.0 0.00 0.00 0.00 25 1020.6
20260504184216 71 309 7.0 13.0 0.00 0.00 0.00 23 1020.6
20260504183717 71 295 6.0 13.0 0.00 0.00 0.00 22 1020.6
20260504183214 71 267 8.0 15.0 0.00 0.00 0.00 21 1020.6
20260504182713 71 279 9.0 16.0 0.00 0.00 0.00 23 1020.6
20260504182213 70 300 8.0 16.0 0.00 0.00 0.00 23 1020.6
20260504181712 70 276 8.0 15.0 0.00 0.00 0.00 21 1020.6
20260504181213 70 319 9.0 16.0 0.00 0.00 0.00 25 1020.6
20260504180711 69 334 11.0 17.0 0.00 0.00 0.00 24 1020.6
20260504180442 69 328 11.0 17.0 0.00 0.00 0.00 25 1020.6
20260504175711 69 305 11.0 17.0 0.00 0.00 0.00 26 1020.6
20260504175210 69 299 12.0 17.0 0.00 0.00 0.00 26 1020.6
20260504174711 69 307 10.0 16.0 0.00 0.00 0.00 25 1020.6
20260504174209 69 294 10.0 16.0 0.00 0.00 0.00 27 1020.6
20260504173710 68 290 9.0 15.0 0.00 0.00 0.00 27 1020.6
20260504173207 68 295 9.0 15.0 0.00 0.00 0.00 26 1020.6
20260504172710 67 289 8.0 14.0 0.00 0.00 0.00 27 1020.6
20260504172208 67 309 9.0 15.0 0.00 0.00 0.00 27 1020.6
20260504171708 67 312 9.0 15.0 0.00 0.00 0.00 26 1020.6
20260504171207 67 304 9.0 16.0 0.00 0.00 0.00 28 1020.6
20260504170709 66 283 10.0 16.0 0.00 0.00 0.00 28 1020.6
20260504170208 66 311 10.0 17.0 0.00 0.00 0.00 29 1020.6
20260504160208 62 290 4.0 12.0 0.00 0.00 0.00 30 1020.6
20260504160204 62 300 4.0 12.0 0.00 0.00 0.00 31 1020.6
20260504150703 62 280 4.0 9.0 0.00 0.00 0.00 30 1020.6
20260504150201 62 295 5.0 10.0 0.00 0.00 0.00 30 1020.6
20260504141158 60 286 2.0 7.0 0.00 0.00 0.00 30 1020.6
20260504140701 60 287 1.0 7.0 0.00 0.00 0.00 29 1020.6
20260504140206 59 265 2.0 6.0 0.00 0.00 0.00 27 1020.6
20260504140201 59 336 1.0 5.0 0.00 0.00 0.00 29 1020.6
20260504130656 58 296 4.0 8.0 0.00 0.00 0.00 26 1020.6
20260504130157 57 295 4.0 8.0 0.00 0.00 0.00 26 1020.6
20260504120156 57 299 4.0 8.0 0.00 0.00 0.00 24 1020.6
20260504110655 52 269 0.0 0.0 0.00 0.00 0.00 28 1020.6
20260504110202 53 271 0.0 1.0 0.00 0.00 0.00 29 1020.6
20260504110156 53 269 0.0 1.0 0.00 0.00 0.00 28 1020.6
20260504100424 50 290 0.0 0.0 0.00 0.00 0.00 38 1020.6
20260504081655 52 222 0.0 0.0 0.00 0.00 0.00 36 1020.6
20260504081154 52 96 0.0 0.0 0.00 0.00 0.00 36 1020.6
20260504080653 52 110 0.0 0.0 0.00 0.00 0.00 35 1020.6
20260504080152 53 108 0.0 3.0 0.00 0.00 0.00 35 1020.6
20260504070149 52 306 4.0 6.0 0.00 0.00 0.00 38 1020.6
20260504060147 56 307 5.0 10.0 0.00 0.00 0.00 32 1020.6
20260504050641 59 290 8.0 13.0 0.00 0.00 0.00 29 1020.6
20260504050415 59 278 8.0 13.0 0.00 0.00 0.00 29 1020.6
20260504045643 59 310 7.0 13.0 0.00 0.00 0.00 29 1020.6
20260504045143 60 292 6.0 11.0 0.00 0.00 0.00 29 1020.6
20260504044640 60 255 6.0 11.0 0.00 0.00 0.00 29 1020.6
20260504044140 60 261 6.0 10.0 0.00 0.00 0.00 29 1020.6
20260504043642 60 291 5.0 10.0 0.00 0.00 0.00 29 1020.6
20260504043141 60 273 4.0 9.0 0.00 0.00 0.00 29 1020.6
20260504042640 60 308 4.0 9.0 0.00 0.00 0.00 28 1020.6
20260504042141 60 291 5.0 9.0 0.00 0.00 0.00 28 1020.6
20260504041639 60 293 4.0 8.0 0.00 0.00 0.00 29 1020.6
20260504041139 60 295 4.0 7.0 0.00 0.00 0.00 29 1020.6
20260504040639 60 283 5.0 9.0 0.00 0.00 0.00 29 1020.6
20260504040138 60 276 6.0 10.0 0.00 0.00 0.00 30 1020.6
20260504035643 60 266 6.0 9.0 0.00 0.00 0.00 31 1020.6
20260504035638 60 302 6.0 10.0 0.00 0.00 0.00 30 1020.6
20260504034638 60 262 5.0 9.0 0.00 0.00 0.00 31 1020.6
20260504034137 61 305 5.0 9.0 0.00 0.00 0.00 30 1020.6
20260504033639 61 288 6.0 10.0 0.00 0.00 0.00 30 1020.6
20260504033139 61 312 6.0 12.0 0.00 0.00 0.00 30 1020.6
20260504032638 61 312 7.0 12.0 0.00 0.00 0.00 30 1020.6
20260504032136 61 283 7.0 14.0 0.00 0.00 0.00 30 1020.6
20260504031910 61 286 7.0 14.0 0.00 0.00 0.00 30 1020.6
20260504031136 61 293 6.0 13.0 0.00 0.00 0.00 30 1020.6
20260504030637 61 283 6.0 13.0 0.00 0.00 0.00 29 1020.6
20260504030137 61 309 6.0 11.0 0.00 0.00 0.00 29 1020.6
20260504025636 61 283 6.0 11.0 0.00 0.00 0.00 30 1020.6
20260504025405 62 283 6.0 11.0 0.00 0.00 0.00 29 1020.6
20260504024635 62 296 6.0 11.0 0.00 0.00 0.00 29 1020.6
20260504024131 62 276 5.0 11.0 0.00 0.00 0.00 29 1020.6
20260504023903 62 283 4.0 10.0 0.00 0.00 0.00 28 1020.6
20260504023133 62 292 4.0 9.0 0.00 0.00 0.00 28 1020.6
20260504022903 63 302 3.0 9.0 0.00 0.00 0.00 27 1020.6
20260504022131 63 289 2.0 7.0 0.00 0.00 0.00 27 1020.6
20260504021628 64 277 3.0 7.0 0.00 0.00 0.00 26 1020.6
20260504021130 64 282 4.0 8.0 0.00 0.00 0.00 25 1020.6
20260504020629 64 281 5.0 10.0 0.00 0.00 0.00 25 1020.6
20260504020357 64 290 5.0 12.0 0.00 0.00 0.00 25 1020.6
20260504015628 64 300 6.0 13.0 0.00 0.00 0.00 25 1020.6
20260504015132 64 299 6.0 13.0 0.00 0.00 0.00 25 1020.6
20260504015126 64 281 7.0 13.0 0.00 0.00 0.00 25 1020.6
20260504014127 63 281 5.0 10.0 0.00 0.00 0.00 27 1020.6
20260504013628 63 291 6.0 10.0 0.00 0.00 0.00 27 1020.6
20260504013126 63 266 6.0 9.0 0.00 0.00 0.00 27 1020.6
20260504012627 63 302 5.0 9.0 0.00 0.00 0.00 27 1020.6
20260504012128 63 286 5.0 7.0 0.00 0.00 0.00 27 1020.6
20260504011625 64 293 4.0 12.0 0.00 0.00 0.00 26 1020.6
20260504011123 65 309 6.0 14.0 0.00 0.00 0.00 26 1020.6
20260504010623 65 1 8.0 14.0 0.00 0.00 0.00 26 1020.6
20260504010123 65 334 9.0 16.0 0.00 0.00 0.00 25 1020.6
20260504005625 65 321 8.0 16.0 0.00 0.00 0.00 26 1020.6
20260504005125 65 283 6.0 11.0 0.00 0.00 0.00 26 1020.6
20260504004624 65 300 6.0 12.0 0.00 0.00 0.00 26 1020.6
20260504004125 64 320 6.0 12.0 0.00 0.00 0.00 26 1020.6
20260504003857 65 338 6.0 10.0 0.00 0.00 0.00 26 1020.6
20260504003124 65 296 6.0 10.0 0.00 0.00 0.00 26 1020.6
20260504002623 64 277 5.0 11.0 0.00 0.00 0.00 26 1020.6
20260504002355 63 299 4.0 11.0 0.00 0.00 0.00 27 1020.6
20260504001625 64 38 5.0 10.0 0.00 0.00 0.00 27 1020.6
20260504001354 63 352 5.0 11.0 0.00 0.00 0.00 26 1020.6
20260504000625 63 44 4.0 11.0 0.00 0.00 0.00 29 1020.6
20260504000123 64 48 4.0 9.0 0.00 0.00 0.00 28 1020.6
20260503235624 64 47 3.0 7.0 0.00 0.00 0.00 27 1020.6
20260503235123 64 6 4.0 8.0 0.00 0.00 0.00 28 1020.6
20260503234624 63 89 4.0 9.0 0.00 0.00 0.00 30 1020.6
20260503234124 64 93 5.0 9.0 0.00 0.00 0.00 29 1020.6
20260503233624 64 349 4.0 9.0 0.00 0.00 0.00 28 1020.6
20260503233126 64 1 4.0 8.0 0.00 0.00 0.00 28 1020.6
20260503232624 64 30 6.0 16.0 0.00 0.00 0.00 29 1020.6
20260503232124 64 10 8.0 16.0 0.00 0.00 0.00 29 1020.6
20260503231855 64 86 9.0 14.0 0.00 0.00 0.00 28 1020.6
20260503231358 65 63 8.0 14.0 0.00 0.00 0.00 27 1020.6
20260503230623 65 49 7.0 14.0 0.00 0.00 0.00 26 1020.6
20260503230125 66 48 7.0 13.0 0.00 0.00 0.00 25 1020.6
20260503225855 66 37 6.0 11.0 0.00 0.00 0.00 24 1020.6
20260503225355 66 52 5.0 9.0 0.00 0.00 0.00 23 1020.6
20260503224624 66 51 3.0 6.0 0.00 0.00 0.00 23 1020.6
20260503224126 66 49 3.0 8.0 0.00 0.00 0.00 23 1020.6
20260503223623 67 323 3.0 8.0 0.00 0.00 0.00 23 1020.6
20260503223356 67 4 4.0 9.0 0.00 0.00 0.00 22 1020.6
20260503222624 68 34 5.0 10.0 0.00 0.00 0.00 22 1020.6
20260503222357 69 55 4.0 10.0 0.00 0.00 0.00 22 1020.6
20260503221623 68 9 2.0 8.0 0.00 0.00 0.00 23 1020.6
20260503221124 68 119 1.0 7.0 0.00 0.00 0.00 23 1020.6
20260503220623 67 153 4.0 12.0 0.00 0.00 0.00 23 1020.6
20260503220122 67 281 4.0 12.0 0.00 0.00 0.00 23 1020.6
20260503215620 67 259 3.0 10.0 0.00 0.00 0.00 22 1020.6
20260503215119 67 296 4.0 12.0 0.00 0.00 0.00 22 1020.6
20260503214618 67 289 3.0 12.0 0.00 0.00 0.00 21 1020.6
20260503214120 68 251 1.0 12.0 0.00 0.00 0.00 21 1020.6
20260503213615 67 109 2.0 12.0 0.00 0.00 0.00 22 1020.6
20260503213118 68 71 4.0 23.0 0.00 0.00 0.00 21 1020.6
20260503212616 68 260 5.0 23.0 0.00 0.00 0.00 21 1020.6
20260503212115 69 295 5.0 11.0 0.00 0.00 0.00 19 1020.6
20260503211615 69 286 6.0 11.0 0.00 0.00 0.00 19 1020.6
20260503211115 69 297 4.0 10.0 0.00 0.00 0.00 19 1020.6
20260503210613 68 281 5.0 12.0 0.00 0.00 0.00 19 1020.6
20260503210113 68 321 5.0 12.0 0.00 0.00 0.00 19 1020.6
20260503205614 68 297 7.0 18.0 0.00 0.00 0.00 18 1020.6
20260503205116 68 298 11.0 21.0 0.00 0.00 0.00 17 1020.6